Regional Weather Roundup
Issued by NWS

Home | Current Version | Previous Version | Text Only | Print | Product List | Glossary On
Versions: 1 2 3 4 5 6 7 8 9 10 11 12 13 14 15 16 17 18 19 20 21 22 23 24 25 26 27 28 29 30 31 32 33 34 35 36 37 38 39 40 41 42 43 44 45 46 47 48 49 50
000
ASUS45 KCYS 232110
RWRWY

WYOMING REGIONAL WEATHER ROUNDUP
NATIONAL WEATHER SERVICE CHEYENNE WY
300 PM MDT TUE SEP 23 2014

NOTE:  "FAIR" INDICATES FEW OR NO CLOUDS BELOW 12,000 FEET
WITH NO SIGNIFICANT WEATHER AND/OR OBSTRUCTIONS TO VISIBILITY.

WYZ001-232200-
YELLOWSTONE NATIONAL PARK

CITY           SKY/WX    TMP DP  RH WIND       PRES   REMARKS
LK YELLOWSTONE   N/A     57  47  69 VRB5      30.34F
W YELLOWSTONE  NOT AVBL

$$
WYZ002>013-054>058-071-098>099-232200-
NORTHERN WYOMING

CITY           SKY/WX    TMP DP  RH WIND       PRES   REMARKS
JACKSON        MOSUNNY   66  50  55 SW3       30.25F
CODY           PTSUNNY   81  46  30 N8        30.08S
GREYBULL       SUNNY     81  43  26 NW5       30.02F
WORLAND        SUNNY     80  44  27 VRB3      30.04F
SHERIDAN       MOSUNNY   80  46  30 NW16      30.01S
BUFFALO        MOSUNNY   75  43  31 NW13      30.08R
GILLETTE       SUNNY     80  43  26 NW15G24   30.01S
HULETT         FAIR      79  45  29 MISG      30.01
NEWCASTLE      FAIR      75  45  33 MISG      30.00

$$
WYZ014>020-022>026-101>103-232200-
CENTRAL WYOMING

CITY           SKY/WX    TMP DP  RH WIND       PRES   REMARKS
BIG PINEY      SUNNY     71  40  32 NW8       30.26F
PINEDALE       CLEAR     68  37  32 NW10G20   30.27S
DUBOIS         FAIR      70  32  24 NW13G21   30.25R
LANDER         SUNNY     78  40  25 VRB6      30.11F
RIVERTON       SUNNY     75  40  28 E10       30.13F
CASPER         PTSUNNY   77  38  24 NW13      30.10S
DOUGLAS        MOSUNNY   78  42  27 NW14      30.07F

$$
WYZ021-027>030-104>119-232200-
SOUTHERN WYOMING

CITY           SKY/WX    TMP DP  RH WIND       PRES   REMARKS
EVANSTON       PTSUNNY   71  39  31 W14G21    30.29F
KEMMERER       PTCLDY    68  43  40 W15G24    30.30S
FORT BRIDGER   FAIR      73  43  33 W17       30.31S
ROCK SPRINGS   MOSUNNY   70  43  37 W17       30.25F
DIXON          CLOUDY    70  48  44 W13G18    30.27F
RAWLINS        MOSUNNY   72  38  29 W17G29    30.22F
SARATOGA       CLOUDY    70  41  35 W21G26    30.26S
LARAMIE        MOSUNNY   66  38  35 NW22G30   30.23S
CHEYENNE       PTSUNNY   72  39  30 NW20G26   30.16S
TORRINGTON     SUNNY     83  43  24 W10       30.00S
PINE BLUFFS    FAIR      79  39  24 NW22G35   30.09S

$$



USA.gov is the U.S. government's official web portal to all federal, state and local government web resources and services.